Regional Weather Roundup
Issued by NWS

Home | Current Version | Previous Version | Graphics & Text | Print | Product List | Glossary On
Versions: 1 2 3 4 5 6 7 8 9 10 11 12 13 14 15 16 17 18 19 20 21 22 23 24 25 26 27 28 29 30 31 32 33 34 35 36 37 38 39 40 41 42 43 44 45 46 47 48 49 50
000
ASUS43 KIND 130709
RWRIN

WEATHER ROUNDUP FOR INDIANA
NATIONAL WEATHER SERVICE INDIANAPOLIS IN
200 AM EST WED DEC 13 2017

NOTE: "FAIR" INDICATES FEW OR NO CLOUDS BELOW 12,000 FEET WITH NO
SIGNIFICANT WEATHER AND/OR OBSTRUCTIONS TO VISIBILITY.

* - STATION DOES NOT REPORT WEATHER SUCH AS PRECIPITATION OR FOG.

+ - STATION NOT QUALITY CONTROLLED BY THE NATIONAL WEATHER SERVICE.
    USE DATA WITH CAUTION...ESPECIALLY DEWPOINT AND RELATIVE
    HUMIDITY OBSERVATIONS.

INZ001>003-010>013-019-020-130800-
NORTHWEST INDIANA

CITY           SKY/WX    TMP DP  RH WIND       PRES   REMARKS
GARY /AIRPORT/ CLOUDY    23   7  48 S3        29.91F
KNOX *+        CLOUDY    19  10  68 SW7       29.92F WCI  10
LA PORTE +     PTCLDY    18   8  66 SW5       29.89F WCI  11
MICHIGAN CITY+ PTCLDY    19  10  68 SW7       29.90F WCI  10
MONTICELLO +   PTCLDY    17   8  67 S3        29.94F
RENSSELAER +   CLOUDY    19   9  63 S6        29.92F WCI  11
VALPARAISO     CLOUDY    19  11  70 S8        29.89F WCI   9

$$

LMZ046-743>745-130800-
SOUTHERN LAKE MICHIGAN

STATION/POSITION TIME  TEMP    WIND        PRES    WAVE
                       AIR SEA DIR/SP/G            HT
                 (UTC) (F)     (DEG/KT/KT) (MB)    (FT)
BURNS HARBOR     0640   22     200/ 10/ 11 1012.9F

$$

INZ004-005-014>016-021>024-130800-
NORTH CENTRAL INDIANA

CITY           SKY/WX    TMP DP  RH WIND       PRES   REMARKS
GOSHEN         PTCLDY    16   8  71 SW12      29.89F WCI   3
LOGANSPORT +   CLOUDY    19   9  63 SW6       29.94F WCI  11
PERU/GRISSOM   CLOUDY    18  10  68 W8        29.92F WCI   8
ROCHESTER +    PTCLDY    19  10  68 W3        29.92F
SOUTH BEND     MOCLDY    16  11  80 SW9       29.88F WCI   4
WARSAW +       CLOUDY    18   9  68 W8        29.90F WCI   7

$$

INZ006>009-017-018-025>027-130800-
NORTHEAST INDIANA

CITY           SKY/WX    TMP DP  RH WIND       PRES   REMARKS
AUBURN +       CLOUDY    18  10  73 W5        29.90F WCI  11
FORT WAYNE     PTCLDY    14   8  77 W8        29.92F WCI   3
HUNTINGTON +   CLOUDY    17   8  69 W6        29.92F WCI   8
KENDALLVILLE + CLOUDY    14   9  80 SW5       29.88F WCI   7

$$

INZ028-029-035-036-043>045-051>053-130800-
WEST CENTRAL INDIANA

CITY           SKY/WX    TMP DP  RH WIND       PRES   REMARKS
CRAWFORDSVL +  CLOUDY    18  10  70 S5          N/A  WCI  11
GREENCASTLE +  CLOUDY    19  12  73 CALM      29.96F
LAFAYETTE      CLOUDY    18  10  71 CALM      29.95F
TERRE HAUTE    CLOUDY    23   9  55 SW7       29.99F WCI  15

$$

INZ030>032-037>040-046>048-054>057-064-065-130800-
CENTRAL INDIANA

CITY           SKY/WX    TMP DP  RH WIND       PRES   REMARKS
FRANKFORT +    CLOUDY    19  11  70 CALM      29.96F
GREENWOOD *+   CLOUDY   N/A N/A N/A W3        29.97F
INDIANAPOLIS   CLOUDY    19   7  59 SW6       29.97F WCI  11
-EAGLE CREEK   CLOUDY    19   6  57 SW3       29.95F
KOKOMO +       PTCLDY    18  10  71 W9        29.94F WCI   7
MARION +       CLOUDY    18  10  70 W8        29.94F WCI   8
MT COMFORT *+  CLOUDY    18  10  73 SW5       29.96F WCI  11
SHELBYVILLE    CLOUDY    18   9  68 SW5       29.96F WCI  11
ZIONSVILLE +   CLOUDY    16   8  68 SW6       29.96S WCI   8

$$

INZ033-034-041-042-049-050-058-059-130800-
EAST CENTRAL INDIANA

CITY           SKY/WX    TMP DP  RH WIND       PRES   REMARKS
MUNCIE         CLOUDY    18   9  68 W5        29.93F WCI  11
RICHMOND +     CLEAR     14  10  85 W5        29.94S WCI   6

$$

INZ060-061-067>069-081>083-085>088-130800-
SOUTHWEST INDIANA

CITY           SKY/WX    TMP DP  RH WIND       PRES   REMARKS
EVANSVILLE     CLOUDY    21  13  71 CALM      30.06F
HUNTINGBURG +  CLOUDY    19  13  77 S6        30.04F WCI  11
WASHINGTON +   CLEAR     23   9  55 SW6       30.02F WCI  16

$$

INZ062-063-066-070>080-084-089>092-130800-
SOUTH CENTRAL AND SOUTHEAST INDIANA

CITY           SKY/WX    TMP DP  RH WIND       PRES   REMARKS
BEDFORD +      CLEAR     19   9  63 SW5       30.00F WCI  13
BLOOMINGTON    MOCLDY    19   8  62 CALM      29.98F
MADISON *+     CLEAR     21   9  58 W5        30.02F WCI  15
NORTH VERNON + CLEAR     18   9  68 CALM      30.00F
SEYMOUR +      PTCLDY    19   9  63 SW3       30.01F

$$





USA.gov is the U.S. government's official web portal to all federal, state and local government web resources and services.